Weather History for Wisconsin Rapids, WI

Change the Weather History Date:

Wednesday, April 3, 2013

  Actual Average Record
Temperature  
Mean Temperature 28 °F -  
Max Temperature 42 °F 47 °F 70 °F (1981)
Min Temperature 15 °F 28 °F 5 °F (1954)
Degree Days  
Heating Degree Days 37    
Moisture  
Dew Point 12 °F    
Average Humidity 51    
Maximum Humidity 85    
Minimum Humidity 28    
Precipitation  
Precipitation 0.00 in - - ()
Sea Level Pressure  
Sea Level Pressure 30.38 in    
Wind  
Wind Speed 2 mph (South)    
Max Wind Speed 13 mph    
Max Gust Speed 18 mph    
Visibility 10 miles    
Events      
Averages and records for this station are not official NWS values.
T = Trace of Precipitation, MM = Missing Value Source: NWS Daily Summary

Daily Weather History Graph

Daily Weather History Graph

Search for Another Location

Airport:

Trip Planner

Search our weather history database for the weather conditions in past years. The results will help you decide how hot, cold, wet, or windy it might be!

Date:

Astronomy

Apr. 03, 2013 Rise Set
Actual Time 6:36 AM CDT 7:29 PM CDT
Civil Twilight 6:06 AM CDT 7:58 PM CDT
Nautical Twilight 5:31 AM CDT 8:34 PM CDT
Astronomical Twilight 4:55 AM CDT 9:10 PM CDT
Moon 2:31 AM CDT (4/3) 12:27 PM CDT (4/3)
Length of Visible Light 13h 52m
Length of Day
12h 53m
Last Quarter, 44% of the Moon is Illuminated
Apr 3
Last Quarter
Apr 10
New
Apr 18
First Quarter
Apr 25
Full
May 2
Last Quarter

Hourly Weather History & Observations

Time (CDT) Temp. Windchill Dew Point Humidity Pressure Visibility Wind Dir Wind Speed Gust Speed Precip Events Conditions
12:54 AM 24.1 °F - 12.0 °F 60% 30.37 in 10.0 mi Calm Calm - N/A   Clear
1:54 AM 19.0 °F - 12.9 °F 77% 30.39 in 10.0 mi Calm Calm - N/A   Clear
2:54 AM 19.0 °F - 12.0 °F 74% 30.39 in 10.0 mi Calm Calm - N/A   Clear
3:54 AM 17.1 °F - 12.0 °F 81% 30.40 in 10.0 mi Calm Calm - N/A   Clear
4:54 AM 16.0 °F - 10.9 °F 81% 30.42 in 10.0 mi Calm Calm - N/A   Clear
5:54 AM 16.0 °F - 10.0 °F 77% 30.43 in 10.0 mi Calm Calm - N/A   Clear
6:54 AM 15.1 °F - 10.9 °F 84% 30.44 in 10.0 mi Calm Calm - N/A   Clear
7:54 AM 19.9 °F - 16.0 °F 85% 30.47 in 10.0 mi Calm Calm - N/A   Clear
8:54 AM 28.0 °F - 12.0 °F 51% 30.49 in 10.0 mi Calm Calm - N/A   Clear
9:54 AM 30.9 °F 24.3 °F 10.0 °F 42% 30.50 in 10.0 mi SSW 6.9 mph - N/A   Clear
10:54 AM 33.1 °F 27.7 °F 10.0 °F 38% 30.49 in 10.0 mi SSW 5.8 mph - N/A   Clear
11:54 AM 37.0 °F - 6.1 °F 28% 30.46 in 10.0 mi Calm Calm - N/A   Clear
12:54 PM 39.0 °F 35.7 °F 8.1 °F 28% 30.41 in 10.0 mi NE 4.6 mph - N/A   Clear
1:54 PM 39.9 °F - 9.0 °F 28% 30.40 in 10.0 mi Calm Calm - N/A   Clear
2:54 PM 39.9 °F 35.8 °F 12.9 °F 33% 30.40 in 10.0 mi SSE 5.8 mph - N/A   Clear
3:54 PM 41.0 °F 35.8 °F 12.0 °F 31% 30.37 in 10.0 mi SSE 8.1 mph - N/A   Clear
4:54 PM 41.0 °F 33.9 °F 10.9 °F 29% 30.35 in 10.0 mi SW 12.7 mph 18.4 mph N/A   Clear
5:54 PM 41.0 °F 34.7 °F 12.9 °F 32% 30.33 in 10.0 mi SSW 10.4 mph - N/A   Clear
6:54 PM 39.9 °F 34.5 °F 12.9 °F 33% 30.31 in 10.0 mi SSW 8.1 mph - N/A   Clear
7:54 PM 37.9 °F 33.5 °F 12.0 °F 35% 30.29 in 10.0 mi South 5.8 mph - N/A   Clear
8:54 PM 34.0 °F 29.8 °F 14.0 °F 44% 30.29 in 10.0 mi South 4.6 mph - N/A   Clear
9:54 PM 34.0 °F 28.0 °F 17.1 °F 50% 30.29 in 10.0 mi SSW 6.9 mph - N/A   Clear
10:54 PM 33.1 °F 26.9 °F 18.0 °F 54% 30.27 in 10.0 mi South 6.9 mph - N/A   Clear
11:54 PM 32.0 °F 25.6 °F 18.0 °F 56% 30.24 in 10.0 mi South 6.9 mph - N/A   Clear